Location: Newark
(41.7772°N, 74.7403°W)
Time: 11:28:30
(UTC+00:00)

Transit 4A - Pass Details

Date: 03 June 2020
Orbit: 866 x 978 km, 66.8° (Epoch: 06 July)

Event Time Altitude Azimuth Distance (km) Brightness Sun altitude
Exits shadow 07:47:44 - 273° (W) 3,007 10.2 -14.7°
Reaches altitude 10° 07:49:44 10° 287° (WNW) 2,532 10.0 -14.4°
Maximum altitude 07:53:09 16° 324° (NW) 2,169 10.0 -14.0°
Drops below altitude 10° 07:56:38 10° 360° (N) 2,573 10.9 -13.6°
Sets 08:00:19 0° 22° (NNE) 3,540 12.4 -13.1°
